Flag for New Zealand Weather past 2 weeks in Auckland, New Zealand

Now
59 °F

Passing clouds.


Feels Like: 58 °F
Forecast: 59 / 70 °F
Wind: 6 mph from Southeast

Location: Auckland Airport

Current Time: Dec 27, 2014 at 4:01:48 AM

Latest Report: Dec 27, 2014 at 3:30 AM


Visibility: N/A

Pressure: 30.27 "Hg

Humidity: 88%

Dew point: 55 °F

Location of AucklandLocation

Historic Weather in Auckland — Graph

°F

Auckland temperature yesterday

Maximum temperature yesterday: 73 °F (at 2:00 PM)
Minimum temperature yesterday: 59 °F (at 5:30 AM)
Average temperature yesterday: 65 °F

Past Weeks' High & Low Weather Summary

 TemperatureHumidityPressure
High77 °F (Dec 19, 1:30 PM)100% (Dec 14, 3:00 AM)30.30 "Hg (Dec 14, 3:00 AM)
Low57 °F (Dec 13, 11:30 PM)47% (Dec 23, 3:30 PM)29.68 "Hg (Dec 14, 5:00 PM)
Average65 °F80%30.01 "Hg
* Reported Dec 12 3:00 AM — Dec 27 3:00 AM, Auckland, Weather by CustomWeather, © 2014

Note: Actual official high and low records may vary slightly from our data, if they occured in-between our weather recording intervals... More about our weather records

Advertising

Auckland weather history for previous 24 hours

 ConditionsComfort  
Time TempWeatherWind HumidityBarometerVisibility
3:00 AM
Dec 27
59 °FPassing clouds.7 mph88%30.27 "HgN/A
2:30 AM59 °FPassing clouds.5 mph88%30.27 "HgN/A
2:00 AM59 °FPassing clouds.3 mph88%30.27 "HgN/A
1:30 AM59 °FCool.5 mph88%30.27 "HgN/A
1:00 AM59 °FCool.5 mph88%30.27 "HgN/A
12:30 AM61 °FCool.5 mph83%30.30 "HgN/A
12:00 AM61 °FCool.7 mph77%30.30 "HgN/A
11:30 PM
Dec 26
61 °FCool.6 mph83%30.27 "HgN/A
11:00 PM61 °FCool.7 mph77%30.27 "HgN/A
10:30 PM61 °FCool.7 mph77%30.27 "HgN/A
10:00 PM63 °FMild.7 mph73%30.27 "HgN/A
9:30 PM63 °FMild.12 mph73%30.27 "HgN/A
9:00 PM64 °FMild.13 mph68%30.24 "HgN/A
8:30 PM66 °FMild.16 mph64%30.24 "HgN/A
8:00 PM66 °FMild.16 mph64%30.24 "HgN/A
7:30 PM68 °FScattered clouds.16 mph64%30.24 "HgN/A
7:00 PM70 °FPassing clouds.17 mph60%30.24 "HgN/A
6:30 PM70 °FMild.15 mph60%30.24 "HgN/A
6:00 PM70 °FMild.17 mph64%30.24 "HgN/A
5:30 PM70 °FMild.20 mph64%30.24 "HgN/A
5:00 PM72 °FMild.14 mph53%30.24 "HgN/A
4:30 PM70 °FPartly sunny.15 mph53%30.24 "HgN/A
3:30 PM73 °FBroken clouds.12 mph53%30.24 "HgN/A
3:00 PM72 °FPartly sunny.12 mph57%30.27 "HgN/A
2:30 PM73 °FScattered clouds.13 mph57%30.27 "HgN/A
2:00 PM73 °FPartly sunny.8 mph57%30.27 "HgN/A
1:30 PM72 °FPartly sunny.9 mph53%30.27 "HgN/A
1:00 PM70 °FPartly sunny.8 mph60%30.27 "HgN/A
12:30 PM70 °FPartly sunny.9 mph64%30.30 "HgN/A
12:00 PM68 °FPartly sunny.12 mph64%30.30 "HgN/A
11:30 AM70 °FOvercast.12 mph60%30.30 "HgN/A
11:00 AM70 °FBroken clouds.12 mph60%30.27 "HgN/A
10:30 AM70 °FScattered clouds.10 mph57%30.30 "HgN/A
10:00 AM68 °FPassing clouds.10 mph64%30.30 "HgN/A
9:30 AM68 °FMild.12 mph64%30.30 "HgN/A
9:00 AM66 °FMild.13 mph68%30.30 "HgN/A
8:30 AM64 °FMild.6 mph78%30.30 "HgN/A
8:00 AM63 °FMild.5 mph77%30.30 "HgN/A
7:30 AM61 °FCool.7 mph83%30.27 "HgN/A
7:00 AM61 °FCool.8 mph77%30.27 "HgN/A
6:30 AM59 °FCool.6 mph82%30.27 "HgN/A
6:00 AM59 °FCool.8 mph82%30.27 "HgN/A
5:30 AM59 °FCool.7 mph82%30.27 "HgN/A
5:00 AM61 °FCool.8 mph77%30.24 "HgN/A
4:30 AM61 °FCool.7 mph77%30.24 "HgN/A
4:00 AM61 °FCool.7 mph77%30.24 "HgN/A
Weather by CustomWeather, © 2014

See weather overviewHow to use our weather pages